Year,Month,Day,Hour,Minute,Value (Times are PST for temperature in C)
2021,08,12,00,00,21.50
2021,08,12,00,01,21.50
2021,08,12,00,02,21.60
2021,08,12,00,03,21.60
2021,08,12,00,04,21.60
2021,08,12,00,05,21.70
2021,08,12,00,06,21.70
2021,08,12,00,07,21.70
2021,08,12,00,08,21.70
2021,08,12,00,09,21.70
2021,08,12,00,10,21.60
2021,08,12,00,11,21.60
2021,08,12,00,12,21.60
2021,08,12,00,13,21.60
2021,08,12,00,14,21.60
2021,08,12,00,15,21.50
2021,08,12,00,16,21.50
2021,08,12,00,17,21.50
2021,08,12,00,18,21.40
2021,08,12,00,19,21.40
2021,08,12,00,20,21.40
2021,08,12,00,21,21.40
2021,08,12,00,22,21.40
2021,08,12,00,23,21.30
2021,08,12,00,24,21.30
2021,08,12,00,25,21.30
2021,08,12,00,26,21.30
2021,08,12,00,27,21.30
2021,08,12,00,28,21.30
2021,08,12,00,29,21.20
2021,08,12,00,30,21.20
2021,08,12,00,31,21.20
2021,08,12,00,32,21.20
2021,08,12,00,33,21.10
2021,08,12,00,34,21.10
2021,08,12,00,35,21.10
2021,08,12,00,36,21.10
2021,08,12,00,37,21.00
2021,08,12,00,38,21.00
2021,08,12,00,39,21.00
2021,08,12,00,40,21.00
2021,08,12,00,41,21.00
2021,08,12,00,42,20.90
2021,08,12,00,43,20.90
2021,08,12,00,44,20.90
2021,08,12,00,45,20.90
2021,08,12,00,46,20.90
2021,08,12,00,47,20.80
2021,08,12,00,48,20.80
2021,08,12,00,49,20.80
2021,08,12,00,50,20.80
2021,08,12,00,51,20.80
2021,08,12,00,52,20.80
2021,08,12,00,53,20.80
2021,08,12,00,54,20.80
2021,08,12,00,55,20.70
2021,08,12,00,56,20.70
2021,08,12,00,57,20.70
2021,08,12,00,58,20.70
2021,08,12,00,59,20.70
2021,08,12,01,00,20.70
2021,08,12,01,01,20.70
2021,08,12,01,02,20.70
2021,08,12,01,03,20.70
2021,08,12,01,04,20.70
2021,08,12,01,05,20.70
2021,08,12,01,06,20.70
2021,08,12,01,07,20.70
2021,08,12,01,08,20.70
2021,08,12,01,09,20.70
2021,08,12,01,10,20.70
2021,08,12,01,11,20.60
2021,08,12,01,12,20.60
2021,08,12,01,13,20.60
2021,08,12,01,14,20.60
2021,08,12,01,15,20.60
2021,08,12,01,16,20.60
2021,08,12,01,17,20.60
2021,08,12,01,18,20.50
2021,08,12,01,19,20.50
2021,08,12,01,20,20.50
2021,08,12,01,21,20.50
2021,08,12,01,22,20.50
2021,08,12,01,23,20.50
2021,08,12,01,24,20.40
2021,08,12,01,25,20.40
2021,08,12,01,26,20.50
2021,08,12,01,27,20.50
2021,08,12,01,28,20.50
2021,08,12,01,29,20.50
2021,08,12,01,30,20.40
2021,08,12,01,31,20.40
2021,08,12,01,32,20.40
2021,08,12,01,33,20.40
2021,08,12,01,34,20.40
2021,08,12,01,35,20.40
2021,08,12,01,36,20.40
2021,08,12,01,37,20.40
2021,08,12,01,38,20.40
2021,08,12,01,39,20.40
2021,08,12,01,40,20.30
2021,08,12,01,41,20.30
2021,08,12,01,42,20.30
2021,08,12,01,43,20.30
2021,08,12,01,44,20.30
2021,08,12,01,45,20.30
2021,08,12,01,46,20.30
2021,08,12,01,47,20.30
2021,08,12,01,48,20.30
2021,08,12,01,49,20.30
2021,08,12,01,50,20.30
2021,08,12,01,51,20.30
2021,08,12,01,52,20.30
2021,08,12,01,53,20.30
2021,08,12,01,54,20.30
2021,08,12,01,55,20.30
2021,08,12,01,56,20.30
2021,08,12,01,57,20.30
2021,08,12,01,58,20.30
2021,08,12,01,59,20.30
2021,08,12,02,00,20.30
2021,08,12,02,01,20.30
2021,08,12,02,02,20.30
2021,08,12,02,03,20.30
2021,08,12,02,04,20.30
2021,08,12,02,05,20.30
2021,08,12,02,06,20.30
2021,08,12,02,07,20.30
2021,08,12,02,08,20.30
2021,08,12,02,09,20.30
2021,08,12,02,10,20.30
2021,08,12,02,11,20.30
2021,08,12,02,12,20.30
2021,08,12,02,13,20.30
2021,08,12,02,14,20.20
2021,08,12,02,15,20.20
2021,08,12,02,16,20.20
2021,08,12,02,17,20.20
2021,08,12,02,18,20.20
2021,08,12,02,19,20.20
2021,08,12,02,20,20.20
2021,08,12,02,21,20.20
2021,08,12,02,22,20.20
2021,08,12,02,23,20.10
2021,08,12,02,24,20.10
2021,08,12,02,25,20.10
2021,08,12,02,26,20.10
2021,08,12,02,27,20.00
2021,08,12,02,28,20.00
2021,08,12,02,29,20.00
2021,08,12,02,30,20.00
2021,08,12,02,31,20.00
2021,08,12,02,32,20.00
2021,08,12,02,33,20.00
2021,08,12,02,34,20.00
2021,08,12,02,35,20.00
2021,08,12,02,36,20.00
2021,08,12,02,37,20.00
2021,08,12,02,38,20.00
2021,08,12,02,39,19.90
2021,08,12,02,40,19.90
2021,08,12,02,41,19.90
2021,08,12,02,42,19.90
2021,08,12,02,43,19.90
2021,08,12,02,44,19.90
2021,08,12,02,45,19.90
2021,08,12,02,46,19.90
2021,08,12,02,47,19.90
2021,08,12,02,48,19.90
2021,08,12,02,49,19.90
2021,08,12,02,50,19.90
2021,08,12,02,51,19.90
2021,08,12,02,52,19.90
2021,08,12,02,53,19.90
2021,08,12,02,54,19.90
2021,08,12,02,55,19.90
2021,08,12,02,56,19.90
2021,08,12,02,57,19.80
2021,08,12,02,58,19.80
2021,08,12,02,59,19.80
2021,08,12,03,00,19.80
2021,08,12,03,01,19.80
2021,08,12,03,02,19.80
2021,08,12,03,03,19.80
2021,08,12,03,04,19.80
2021,08,12,03,05,19.80
2021,08,12,03,06,19.80
2021,08,12,03,07,19.80
2021,08,12,03,08,19.80
2021,08,12,03,09,19.70
2021,08,12,03,10,19.70
2021,08,12,03,11,19.70
2021,08,12,03,12,19.70
2021,08,12,03,13,19.60
2021,08,12,03,14,19.50
2021,08,12,03,15,19.50
2021,08,12,03,16,19.40
2021,08,12,03,17,19.40
2021,08,12,03,18,19.30
2021,08,12,03,19,19.30
2021,08,12,03,20,19.20
2021,08,12,03,21,19.20
2021,08,12,03,22,19.20
2021,08,12,03,23,19.10
2021,08,12,03,24,19.10
2021,08,12,03,25,19.10
2021,08,12,03,26,19.00
2021,08,12,03,27,19.00
2021,08,12,03,28,19.00
2021,08,12,03,29,18.90
2021,08,12,03,30,18.90
2021,08,12,03,31,18.90
2021,08,12,03,32,18.90
2021,08,12,03,33,18.90
2021,08,12,03,34,18.80
2021,08,12,03,35,18.80
2021,08,12,03,36,18.80
2021,08,12,03,37,18.80
2021,08,12,03,38,18.70
2021,08,12,03,39,18.70
2021,08,12,03,40,18.70
2021,08,12,03,41,18.80
2021,08,12,03,42,18.90
2021,08,12,03,43,19.00
2021,08,12,03,44,19.10
2021,08,12,03,45,19.10
2021,08,12,03,46,19.20
2021,08,12,03,47,19.30
2021,08,12,03,48,19.40
2021,08,12,03,49,19.40
2021,08,12,03,50,19.50
2021,08,12,03,51,19.50
2021,08,12,03,52,19.60
2021,08,12,03,53,19.70
2021,08,12,03,54,19.70
2021,08,12,03,55,19.80
2021,08,12,03,56,19.80
2021,08,12,03,57,19.80
2021,08,12,03,58,19.80
2021,08,12,03,59,19.80
2021,08,12,04,00,19.80
2021,08,12,04,01,19.80
2021,08,12,04,02,19.80
2021,08,12,04,03,19.80
2021,08,12,04,04,19.80
2021,08,12,04,05,19.80
2021,08,12,04,06,19.80
2021,08,12,04,07,19.80
2021,08,12,04,08,19.80
2021,08,12,04,09,19.70
2021,08,12,04,10,19.70
2021,08,12,04,11,19.70
2021,08,12,04,12,19.70
2021,08,12,04,13,19.70
2021,08,12,04,14,19.70
2021,08,12,04,15,19.80
2021,08,12,04,16,19.80
2021,08,12,04,17,19.80
2021,08,12,04,18,19.80
2021,08,12,04,19,19.80
2021,08,12,04,20,19.80
2021,08,12,04,21,19.80
2021,08,12,04,22,19.80
2021,08,12,04,23,19.70
2021,08,12,04,24,19.70
2021,08,12,04,25,19.70
2021,08,12,04,26,19.70
2021,08,12,04,27,19.70
2021,08,12,04,28,19.70
2021,08,12,04,29,19.60
2021,08,12,04,30,19.60
2021,08,12,04,31,19.60
2021,08,12,04,32,19.50
2021,08,12,04,33,19.50
2021,08,12,04,34,19.40
2021,08,12,04,35,19.40
2021,08,12,04,36,19.30
2021,08,12,04,37,19.20
2021,08,12,04,38,19.10
2021,08,12,04,39,19.00
2021,08,12,04,40,18.90
2021,08,12,04,41,18.90
2021,08,12,04,42,18.80
2021,08,12,04,43,18.70
2021,08,12,04,44,18.60
2021,08,12,04,45,18.50
2021,08,12,04,46,18.50
2021,08,12,04,47,18.40
2021,08,12,04,48,18.30
2021,08,12,04,49,18.30
2021,08,12,04,50,18.20
2021,08,12,04,51,18.20
2021,08,12,04,52,18.20
2021,08,12,04,53,18.20
2021,08,12,04,54,18.10
2021,08,12,04,55,18.10
2021,08,12,04,56,18.10
2021,08,12,04,57,18.10
2021,08,12,04,58,18.10
2021,08,12,04,59,18.00
2021,08,12,05,00,18.00
2021,08,12,05,01,18.00
2021,08,12,05,02,17.90
2021,08,12,05,03,18.00
2021,08,12,05,04,18.00
2021,08,12,05,05,18.10
2021,08,12,05,06,18.10
2021,08,12,05,07,18.10
2021,08,12,05,08,18.00
2021,08,12,05,09,18.00
2021,08,12,05,10,17.90
2021,08,12,05,11,17.90
2021,08,12,05,12,17.90
2021,08,12,05,13,17.80
2021,08,12,05,14,17.80
2021,08,12,05,15,17.80
2021,08,12,05,16,17.80
2021,08,12,05,17,17.80
2021,08,12,05,18,17.70
2021,08,12,05,19,17.70
2021,08,12,05,20,17.70
2021,08,12,05,21,17.70
2021,08,12,05,22,17.70
2021,08,12,05,23,17.70
2021,08,12,05,24,17.70
2021,08,12,05,25,17.70
2021,08,12,05,26,17.70
2021,08,12,05,27,17.80
2021,08,12,05,28,17.80
2021,08,12,05,29,17.80
2021,08,12,05,30,17.90
2021,08,12,05,31,17.90
2021,08,12,05,32,18.00
2021,08,12,05,33,18.00
2021,08,12,05,34,18.00
2021,08,12,05,35,17.90
2021,08,12,05,36,17.90
2021,08,12,05,37,17.90
2021,08,12,05,38,18.00
2021,08,12,05,39,18.00
2021,08,12,05,40,18.00
2021,08,12,05,41,18.00
2021,08,12,05,42,17.90
2021,08,12,05,43,17.90
2021,08,12,05,44,17.90
2021,08,12,05,45,17.80
2021,08,12,05,46,17.80
2021,08,12,05,47,17.80
2021,08,12,05,48,17.80
2021,08,12,05,49,17.70
2021,08,12,05,50,17.70
2021,08,12,05,51,17.70
2021,08,12,05,52,17.70
2021,08,12,05,53,17.70
2021,08,12,05,54,17.70
2021,08,12,05,55,17.70
2021,08,12,05,56,17.80
2021,08,12,05,57,17.80
2021,08,12,05,58,17.90
2021,08,12,05,59,18.00
2021,08,12,06,00,18.00
2021,08,12,06,01,18.00
2021,08,12,06,02,18.00
2021,08,12,06,03,18.00
2021,08,12,06,04,18.00
2021,08,12,06,05,18.10
2021,08,12,06,06,18.20
2021,08,12,06,07,18.20
2021,08,12,06,08,18.20
2021,08,12,06,09,18.20
2021,08,12,06,10,18.20
2021,08,12,06,11,18.20
2021,08,12,06,12,18.10
2021,08,12,06,13,18.00
2021,08,12,06,14,18.00
2021,08,12,06,15,17.90
2021,08,12,06,16,17.90
2021,08,12,06,17,17.80
2021,08,12,06,18,17.80
2021,08,12,06,19,17.80
2021,08,12,06,20,17.70
2021,08,12,06,21,17.70
2021,08,12,06,22,17.70
2021,08,12,06,23,17.70
2021,08,12,06,24,17.70
2021,08,12,06,25,17.70
2021,08,12,06,26,17.70
2021,08,12,06,27,17.80
2021,08,12,06,28,17.80
2021,08,12,06,29,17.90
2021,08,12,06,30,17.90
2021,08,12,06,31,18.00
2021,08,12,06,32,18.10
2021,08,12,06,33,18.10
2021,08,12,06,34,18.10
2021,08,12,06,35,18.20
2021,08,12,06,36,18.30
2021,08,12,06,37,18.30
2021,08,12,06,38,18.30
2021,08,12,06,39,18.20
2021,08,12,06,40,18.10
2021,08,12,06,41,18.00
2021,08,12,06,42,18.00
2021,08,12,06,43,17.90
2021,08,12,06,44,17.90
2021,08,12,06,45,17.90
2021,08,12,06,46,17.90
2021,08,12,06,47,18.00
2021,08,12,06,48,18.10
2021,08,12,06,49,18.10
2021,08,12,06,50,18.10
2021,08,12,06,51,18.10
2021,08,12,06,52,18.10
2021,08,12,06,53,18.10
2021,08,12,06,54,18.10
2021,08,12,06,55,18.10
2021,08,12,06,56,18.10
2021,08,12,06,57,18.30
2021,08,12,06,58,18.60
2021,08,12,06,59,18.70
2021,08,12,07,00,18.70
2021,08,12,07,01,18.80
2021,08,12,07,02,18.80
2021,08,12,07,03,18.80
2021,08,12,07,04,18.80
2021,08,12,07,05,18.80
2021,08,12,07,06,18.80
2021,08,12,07,07,18.90
2021,08,12,07,08,18.90
2021,08,12,07,09,18.90
2021,08,12,07,10,18.90
2021,08,12,07,11,19.00
2021,08,12,07,12,19.00
2021,08,12,07,13,19.10
2021,08,12,07,14,19.10
2021,08,12,07,15,19.10
2021,08,12,07,16,19.20
2021,08,12,07,17,19.20
2021,08,12,07,18,19.20
2021,08,12,07,19,19.30
2021,08,12,07,20,19.30
2021,08,12,07,21,19.30
2021,08,12,07,22,19.40
2021,08,12,07,23,19.40
2021,08,12,07,24,19.40
2021,08,12,07,25,19.50
2021,08,12,07,26,19.50
2021,08,12,07,27,19.60
2021,08,12,07,28,19.60
2021,08,12,07,29,19.70
2021,08,12,07,30,19.80
2021,08,12,07,31,19.90
2021,08,12,07,32,20.00
2021,08,12,07,33,20.10
2021,08,12,07,34,20.10
2021,08,12,07,35,20.20
2021,08,12,07,36,20.30
2021,08,12,07,37,20.30
2021,08,12,07,38,20.30
2021,08,12,07,39,20.40
2021,08,12,07,40,20.40
2021,08,12,07,41,20.50
2021,08,12,07,42,20.50
2021,08,12,07,43,20.60
2021,08,12,07,44,20.60
2021,08,12,07,45,20.60
2021,08,12,07,46,20.70
2021,08,12,07,47,20.70
2021,08,12,07,48,20.70
2021,08,12,07,49,20.70
2021,08,12,07,50,20.70
2021,08,12,07,51,20.70
2021,08,12,07,52,20.70
2021,08,12,07,53,20.70
2021,08,12,07,54,20.70
2021,08,12,07,55,20.80
2021,08,12,07,56,20.80
2021,08,12,07,57,20.80
2021,08,12,07,58,20.90
2021,08,12,07,59,21.00
2021,08,12,08,00,21.10
2021,08,12,08,01,21.10
2021,08,12,08,02,21.20
2021,08,12,08,03,21.20
2021,08,12,08,04,21.20
2021,08,12,08,05,21.30
2021,08,12,08,06,21.30
2021,08,12,08,07,21.30
2021,08,12,08,08,21.30
2021,08,12,08,09,21.30
2021,08,12,08,10,21.30
2021,08,12,08,11,21.30
2021,08,12,08,12,21.30
2021,08,12,08,13,21.40
2021,08,12,08,14,21.50
2021,08,12,08,15,21.50
2021,08,12,08,16,21.50
2021,08,12,08,17,21.50
2021,08,12,08,18,21.60
2021,08,12,08,19,21.60
2021,08,12,08,20,21.60
2021,08,12,08,21,21.70
2021,08,12,08,22,21.80
2021,08,12,08,23,21.80
2021,08,12,08,24,21.80
2021,08,12,08,25,21.90
2021,08,12,08,26,21.90
2021,08,12,08,27,21.90
2021,08,12,08,28,21.80
2021,08,12,08,29,21.90
2021,08,12,08,30,21.90
2021,08,12,08,31,22.00
2021,08,12,08,32,22.10
2021,08,12,08,33,22.20
2021,08,12,08,34,22.30
2021,08,12,08,35,22.30
2021,08,12,08,36,22.40
2021,08,12,08,37,22.50
2021,08,12,08,38,22.60
2021,08,12,08,39,22.70
2021,08,12,08,40,22.70
2021,08,12,08,41,22.80
2021,08,12,08,42,22.80
2021,08,12,08,43,22.80
2021,08,12,08,44,22.80
2021,08,12,08,45,22.90
2021,08,12,08,46,22.90
2021,08,12,08,47,22.90
2021,08,12,08,48,22.90
2021,08,12,08,49,23.00
2021,08,12,08,50,23.00
2021,08,12,08,51,23.10
2021,08,12,08,52,23.10
2021,08,12,08,53,23.10
2021,08,12,08,54,23.10
2021,08,12,08,55,23.20
2021,08,12,08,56,23.20
2021,08,12,08,57,23.30
2021,08,12,08,58,23.30
2021,08,12,08,59,23.30
2021,08,12,09,00,23.40
2021,08,12,09,01,23.40
2021,08,12,09,02,23.50
2021,08,12,09,03,23.50
2021,08,12,09,04,23.50
2021,08,12,09,05,23.60
2021,08,12,09,06,23.60
2021,08,12,09,07,23.60
2021,08,12,09,08,23.60
2021,08,12,09,09,23.70
2021,08,12,09,10,23.70
2021,08,12,09,11,23.70
2021,08,12,09,12,23.80
2021,08,12,09,13,23.80
2021,08,12,09,14,23.80
2021,08,12,09,15,23.80
2021,08,12,09,16,23.80
2021,08,12,09,17,23.80
2021,08,12,09,18,23.90
2021,08,12,09,19,23.90
2021,08,12,09,20,23.90
2021,08,12,09,21,23.90
2021,08,12,09,22,23.90
2021,08,12,09,23,23.90
2021,08,12,09,24,23.90
2021,08,12,09,25,23.90
2021,08,12,09,26,24.00
2021,08,12,09,27,24.00
2021,08,12,09,28,24.10
2021,08,12,09,29,24.00
2021,08,12,09,30,24.00
2021,08,12,09,31,24.00
2021,08,12,09,32,24.00
2021,08,12,09,33,24.00
2021,08,12,09,34,24.00
2021,08,12,09,35,24.00
2021,08,12,09,36,24.00
2021,08,12,09,37,23.90
2021,08,12,09,38,23.90
2021,08,12,09,39,23.90
2021,08,12,09,40,23.80
2021,08,12,09,41,23.80
2021,08,12,09,42,23.70
2021,08,12,09,43,23.70
2021,08,12,09,44,23.70
2021,08,12,09,45,23.70
2021,08,12,09,46,23.70
2021,08,12,09,47,23.80
2021,08,12,09,48,23.80
2021,08,12,09,49,23.80
2021,08,12,09,50,23.80
2021,08,12,09,51,23.80
2021,08,12,09,52,23.80
2021,08,12,09,53,23.80
2021,08,12,09,54,23.70
2021,08,12,09,55,23.70
2021,08,12,09,56,23.50
2021,08,12,09,57,23.40
2021,08,12,09,58,23.30
2021,08,12,09,59,23.30
2021,08,12,10,00,23.20
2021,08,12,10,01,23.20
2021,08,12,10,02,23.20
2021,08,12,10,03,23.20
2021,08,12,10,04,23.30
2021,08,12,10,05,23.40
2021,08,12,10,06,23.50
2021,08,12,10,07,23.60
2021,08,12,10,08,23.70
2021,08,12,10,09,23.90
2021,08,12,10,10,24.00
2021,08,12,10,11,24.20
2021,08,12,10,12,24.30
2021,08,12,10,13,24.40
2021,08,12,10,14,24.50
2021,08,12,10,15,24.60
2021,08,12,10,16,24.60
2021,08,12,10,17,24.70
2021,08,12,10,18,24.70
2021,08,12,10,19,24.80
2021,08,12,10,20,24.80
2021,08,12,10,21,24.80
2021,08,12,10,22,24.90
2021,08,12,10,23,25.00
2021,08,12,10,24,25.10
2021,08,12,10,25,25.20
2021,08,12,10,26,25.30
2021,08,12,10,27,25.50
2021,08,12,10,28,25.60
2021,08,12,10,29,25.70
2021,08,12,10,30,25.80
2021,08,12,10,31,25.90
2021,08,12,10,32,26.00
2021,08,12,10,33,26.10
2021,08,12,10,34,26.20
2021,08,12,10,35,26.30
2021,08,12,10,36,26.40
2021,08,12,10,37,26.40
2021,08,12,10,38,26.40
2021,08,12,10,39,26.50
2021,08,12,10,40,26.50
2021,08,12,10,41,26.60
2021,08,12,10,42,26.60
2021,08,12,10,43,26.60
2021,08,12,10,44,26.60
2021,08,12,10,45,26.60
2021,08,12,10,46,26.60
2021,08,12,10,47,26.60
2021,08,12,10,48,26.50
2021,08,12,10,49,26.50
2021,08,12,10,50,26.50
2021,08,12,10,51,26.50
2021,08,12,10,52,26.60
2021,08,12,10,53,26.60
2021,08,12,10,54,26.70
2021,08,12,10,55,26.70
2021,08,12,10,56,26.80
2021,08,12,10,57,26.80
2021,08,12,10,58,26.70
2021,08,12,10,59,26.70
2021,08,12,11,00,26.60
2021,08,12,11,01,26.60
2021,08,12,11,02,26.60
2021,08,12,11,03,26.60
2021,08,12,11,04,26.60
2021,08,12,11,05,26.60
2021,08,12,11,06,26.60
2021,08,12,11,07,26.50
2021,08,12,11,08,26.40
2021,08,12,11,09,26.30
2021,08,12,11,10,26.20
2021,08,12,11,11,26.10
2021,08,12,11,12,26.00
2021,08,12,11,13,26.00
2021,08,12,11,14,26.00
2021,08,12,11,15,26.10
2021,08,12,11,16,26.10
2021,08,12,11,17,26.10
2021,08,12,11,18,26.10
2021,08,12,11,19,26.20
2021,08,12,11,20,26.20
2021,08,12,11,21,26.10
2021,08,12,11,22,26.10
2021,08,12,11,23,26.00
2021,08,12,11,24,26.00
2021,08,12,11,25,25.90
2021,08,12,11,26,25.80
2021,08,12,11,27,25.80
2021,08,12,11,28,25.80
2021,08,12,11,29,25.70
2021,08,12,11,30,25.70
2021,08,12,11,31,25.70
2021,08,12,11,32,25.80
2021,08,12,11,33,25.80
2021,08,12,11,34,25.80
2021,08,12,11,35,25.80
2021,08,12,11,36,25.80
2021,08,12,11,37,25.80
2021,08,12,11,38,25.80
2021,08,12,11,39,25.80
2021,08,12,11,40,25.80
2021,08,12,11,41,25.80
2021,08,12,11,42,25.80
2021,08,12,11,43,25.90
2021,08,12,11,44,25.90
2021,08,12,11,45,25.90
2021,08,12,11,46,25.80
2021,08,12,11,47,25.80
2021,08,12,11,48,25.80
2021,08,12,11,49,25.80
2021,08,12,11,50,25.70
2021,08,12,11,51,25.70
2021,08,12,11,52,25.60
2021,08,12,11,53,25.60
2021,08,12,11,54,25.50
2021,08,12,11,55,25.50
2021,08,12,11,56,25.60
2021,08,12,11,57,25.60
2021,08,12,11,58,25.60
2021,08,12,11,59,25.60
2021,08,12,12,00,25.60
2021,08,12,12,01,25.50
2021,08,12,12,02,25.50
2021,08,12,12,03,25.60
2021,08,12,12,04,25.50
2021,08,12,12,05,25.50
2021,08,12,12,06,25.40
2021,08,12,12,07,25.40
2021,08,12,12,08,25.50
2021,08,12,12,09,25.50
2021,08,12,12,10,25.60
2021,08,12,12,11,25.70
2021,08,12,12,12,25.70
2021,08,12,12,13,25.80
2021,08,12,12,14,25.80
2021,08,12,12,15,25.90
2021,08,12,12,16,25.90
2021,08,12,12,17,25.90
2021,08,12,12,18,25.80
2021,08,12,12,19,25.80
2021,08,12,12,20,25.80
2021,08,12,12,21,25.90
2021,08,12,12,22,25.90
2021,08,12,12,23,25.90
2021,08,12,12,24,25.90
2021,08,12,12,25,25.80
2021,08,12,12,26,25.80
2021,08,12,12,27,25.80
2021,08,12,12,28,25.80
2021,08,12,12,29,25.80
2021,08,12,12,30,25.80
2021,08,12,12,31,25.70
2021,08,12,12,32,25.70
2021,08,12,12,33,25.70
2021,08,12,12,34,25.80
2021,08,12,12,35,25.80
2021,08,12,12,36,25.90
2021,08,12,12,37,26.00
2021,08,12,12,38,26.10
2021,08,12,12,39,26.20
2021,08,12,12,40,26.30
2021,08,12,12,41,26.30
2021,08,12,12,42,26.30
2021,08,12,12,43,26.30
2021,08,12,12,44,26.30
2021,08,12,12,45,26.30
2021,08,12,12,46,26.40
2021,08,12,12,47,26.40
2021,08,12,12,48,26.50
2021,08,12,12,49,26.50
2021,08,12,12,50,26.60
2021,08,12,12,51,26.60
2021,08,12,12,52,26.70
2021,08,12,12,53,26.70
2021,08,12,12,54,26.70
2021,08,12,12,55,26.70
2021,08,12,12,56,26.70
2021,08,12,12,57,26.70
2021,08,12,12,58,26.80
2021,08,12,12,59,26.80
2021,08,12,13,00,26.90
2021,08,12,13,01,27.00
2021,08,12,13,02,27.10
2021,08,12,13,03,27.20
2021,08,12,13,04,27.30
2021,08,12,13,05,27.40
2021,08,12,13,06,27.40
2021,08,12,13,07,27.50
2021,08,12,13,08,27.60
2021,08,12,13,09,27.70
2021,08,12,13,10,27.80
2021,08,12,13,11,28.00
2021,08,12,13,12,28.10
2021,08,12,13,13,28.20
2021,08,12,13,14,28.30
2021,08,12,13,15,28.30
2021,08,12,13,16,28.30
2021,08,12,13,17,28.30
2021,08,12,13,18,28.30
2021,08,12,13,19,28.20
2021,08,12,13,20,28.20
2021,08,12,13,21,28.20
2021,08,12,13,22,28.20
2021,08,12,13,23,28.30
2021,08,12,13,24,28.30
2021,08,12,13,25,28.30
2021,08,12,13,26,28.30
2021,08,12,13,27,28.20
2021,08,12,13,28,28.20
2021,08,12,13,29,28.20
2021,08,12,13,30,28.30
2021,08,12,13,31,28.20
2021,08,12,13,32,28.10
2021,08,12,13,33,28.10
2021,08,12,13,34,28.10
2021,08,12,13,35,28.00
2021,08,12,13,36,28.00
2021,08,12,13,37,28.00
2021,08,12,13,38,28.00
2021,08,12,13,39,28.10
2021,08,12,13,40,28.10
2021,08,12,13,41,28.20
2021,08,12,13,42,28.20
2021,08,12,13,43,28.20
2021,08,12,13,44,28.20
2021,08,12,13,45,28.20
2021,08,12,13,46,28.30
2021,08,12,13,47,28.30
2021,08,12,13,48,28.40
2021,08,12,13,49,28.50
2021,08,12,13,50,28.60
2021,08,12,13,51,28.70
2021,08,12,13,52,28.80
2021,08,12,13,53,28.80
2021,08,12,13,54,28.90
2021,08,12,13,55,28.90
2021,08,12,13,56,28.90
2021,08,12,13,57,28.90
2021,08,12,13,58,28.80
2021,08,12,13,59,28.80
2021,08,12,14,00,28.70
2021,08,12,14,01,28.70
2021,08,12,14,02,28.70
2021,08,12,14,03,28.70
2021,08,12,14,04,28.70
2021,08,12,14,05,28.70
2021,08,12,14,06,28.70
2021,08,12,14,07,28.70
2021,08,12,14,08,28.70
2021,08,12,14,09,28.70
2021,08,12,14,10,28.70
2021,08,12,14,11,28.70
2021,08,12,14,12,28.70
2021,08,12,14,13,28.70
2021,08,12,14,14,28.80
2021,08,12,14,15,28.80
2021,08,12,14,16,28.80
2021,08,12,14,17,28.90
2021,08,12,14,18,28.90
2021,08,12,14,19,28.90
2021,08,12,14,20,28.90
2021,08,12,14,21,28.90
2021,08,12,14,22,29.00
2021,08,12,14,23,29.00
2021,08,12,14,24,29.00
2021,08,12,14,25,28.90
2021,08,12,14,26,28.90
2021,08,12,14,27,28.90
2021,08,12,14,28,28.90
2021,08,12,14,29,28.90
2021,08,12,14,30,29.00
2021,08,12,14,31,29.00
2021,08,12,14,32,29.10
2021,08,12,14,33,29.20
2021,08,12,14,34,29.30
2021,08,12,14,35,29.30
2021,08,12,14,36,29.30
2021,08,12,14,37,29.40
2021,08,12,14,38,29.50
2021,08,12,14,39,29.50
2021,08,12,14,40,29.60
2021,08,12,14,41,29.70
2021,08,12,14,42,29.70
2021,08,12,14,43,29.60
2021,08,12,14,44,29.60
2021,08,12,14,45,29.70
2021,08,12,14,46,29.70
2021,08,12,14,47,29.70
2021,08,12,14,48,29.70
2021,08,12,14,49,29.70
2021,08,12,14,50,29.70
2021,08,12,14,51,29.70
2021,08,12,14,52,29.70
2021,08,12,14,53,29.70
2021,08,12,14,54,29.70
2021,08,12,14,55,29.70
2021,08,12,14,56,29.70
2021,08,12,14,57,29.70
2021,08,12,14,58,29.80
2021,08,12,14,59,29.80
2021,08,12,15,00,29.80
2021,08,12,15,01,29.80
2021,08,12,15,02,29.80
2021,08,12,15,03,29.80
2021,08,12,15,04,29.90
2021,08,12,15,05,30.00
2021,08,12,15,06,30.10
2021,08,12,15,07,30.10
2021,08,12,15,08,30.20
2021,08,12,15,09,30.20
2021,08,12,15,10,30.20
2021,08,12,15,11,30.30
2021,08,12,15,12,30.40
2021,08,12,15,13,30.50
2021,08,12,15,14,30.50
2021,08,12,15,15,30.50
2021,08,12,15,16,30.60
2021,08,12,15,17,30.60
2021,08,12,15,18,30.70
2021,08,12,15,19,30.70
2021,08,12,15,20,30.70
2021,08,12,15,21,30.80
2021,08,12,15,22,30.80
2021,08,12,15,23,30.80
2021,08,12,15,24,30.80
2021,08,12,15,25,30.80
2021,08,12,15,26,30.80
2021,08,12,15,27,30.80
2021,08,12,15,28,30.90
2021,08,12,15,29,30.90
2021,08,12,15,30,30.90
2021,08,12,15,31,30.90
2021,08,12,15,32,31.00
2021,08,12,15,33,31.00
2021,08,12,15,34,31.00
2021,08,12,15,35,31.00
2021,08,12,15,36,31.10
2021,08,12,15,37,31.10
2021,08,12,15,38,31.20
2021,08,12,15,39,31.20
2021,08,12,15,40,31.30
2021,08,12,15,41,31.40
2021,08,12,15,42,31.40
2021,08,12,15,43,31.50
2021,08,12,15,44,31.50
2021,08,12,15,45,31.50
2021,08,12,15,46,31.50
2021,08,12,15,47,31.60
2021,08,12,15,48,31.70
2021,08,12,15,49,31.80
2021,08,12,15,50,31.80
2021,08,12,15,51,31.80
2021,08,12,15,52,31.80
2021,08,12,15,53,31.90
2021,08,12,15,54,31.90
2021,08,12,15,55,31.90
2021,08,12,15,56,31.90
2021,08,12,15,57,31.90
2021,08,12,15,58,31.90
2021,08,12,15,59,31.90
2021,08,12,16,00,31.90
2021,08,12,16,01,31.90
2021,08,12,16,02,31.90
2021,08,12,16,03,31.90
2021,08,12,16,04,31.90
2021,08,12,16,05,31.90
2021,08,12,16,06,32.00
2021,08,12,16,07,32.00
2021,08,12,16,08,32.10
2021,08,12,16,09,32.10
2021,08,12,16,10,32.10
2021,08,12,16,11,32.10
2021,08,12,16,12,32.10
2021,08,12,16,13,32.10
2021,08,12,16,14,32.10
2021,08,12,16,15,32.10
2021,08,12,16,16,32.10
2021,08,12,16,17,32.00
2021,08,12,16,18,32.00
2021,08,12,16,19,32.00
2021,08,12,16,20,32.10
2021,08,12,16,21,32.10
2021,08,12,16,22,32.20
2021,08,12,16,23,32.20
2021,08,12,16,24,32.20
2021,08,12,16,25,32.20
2021,08,12,16,26,32.20
2021,08,12,16,27,32.20
2021,08,12,16,28,32.20
2021,08,12,16,29,32.20
2021,08,12,16,30,32.20
2021,08,12,16,31,32.20
2021,08,12,16,32,32.20
2021,08,12,16,33,32.20
2021,08,12,16,34,32.30
2021,08,12,16,35,32.30
2021,08,12,16,36,32.30
2021,08,12,16,37,32.40
2021,08,12,16,38,32.40
2021,08,12,16,39,32.40
2021,08,12,16,40,32.30
2021,08,12,16,41,32.30
2021,08,12,16,42,32.30
2021,08,12,16,43,32.30
2021,08,12,16,44,32.30
2021,08,12,16,45,32.30
2021,08,12,16,46,32.20
2021,08,12,16,47,32.20
2021,08,12,16,48,32.20
2021,08,12,16,49,32.20
2021,08,12,16,50,32.20
2021,08,12,16,51,32.20
2021,08,12,16,52,32.30
2021,08,12,16,53,32.30
2021,08,12,16,54,32.30
2021,08,12,16,55,32.30
2021,08,12,16,56,32.30
2021,08,12,16,57,32.30
2021,08,12,16,58,32.30
2021,08,12,16,59,32.30
2021,08,12,17,00,32.30
2021,08,12,17,01,32.20
2021,08,12,17,02,32.20
2021,08,12,17,03,32.20
2021,08,12,17,04,32.20
2021,08,12,17,05,32.20
2021,08,12,17,06,32.20
2021,08,12,17,07,32.20
2021,08,12,17,08,32.20
2021,08,12,17,09,32.20
2021,08,12,17,10,32.20
2021,08,12,17,11,32.20
2021,08,12,17,12,32.20
2021,08,12,17,13,32.20
2021,08,12,17,14,32.20
2021,08,12,17,15,32.20
2021,08,12,17,16,32.20
2021,08,12,17,17,32.20
2021,08,12,17,18,32.20
2021,08,12,17,19,32.20